Weather History for KPMD - April, 2013

Change the Weather History Date:

Monday, April 1, 2013

  Actual Average Record
Temperature  
Mean Temperature 57 °F 55 °F  
Max Temperature 67 °F 69 °F 92 °F (1966)
Min Temperature 46 °F 41 °F 27 °F (1971)
Degree Days  
Heating Degree Days 8 11  
Month to date heating degree days 8 11  
Since 1 July heating degree days 2418 2632  
Cooling Degree Days 0 0  
Month to date cooling degree days 0 0  
Year to date cooling degree days 7 2  
Growing Degree Days 6 (Base 50)    
Moisture  
Dew Point 40 °F    
Average Humidity 57    
Maximum Humidity 80    
Minimum Humidity 34    
Precipitation  
Precipitation 0.00 in 0.02 in 1.00 in (1982)
Month to date precipitation 0.00 0.02  
Year to date precipitation 0.71 4.53  
Since 1 July precipitation 1.00  
Snow  
Snow 0.00 in - 0.00 in (1973)
Month to date snowfall 0.0  
Since 1 July snowfall 0.0  
Snow Depth 0.00 in    
Sea Level Pressure  
Sea Level Pressure 30.05 in    
Wind  
Wind Speed 14 mph (WSW)    
Max Wind Speed 28 mph    
Max Gust Speed 36 mph    
Visibility 10 miles    
Events      
T = Trace of Precipitation, MM = Missing Value Source: NWS Daily Summary

Daily Weather History Graph

Daily Weather History Graph

Search for Another Location

Airport or City:

Trip Planner

Search our weather history database for the weather conditions in past years. The results will help you decide how hot, cold, wet, or windy it might be!

Date:

Astronomy

Apr. 01, 2013 Rise Set
Actual Time 6:38 AM PDT 7:13 PM PDT
Civil Twilight 6:13 AM PDT 7:39 PM PDT
Nautical Twilight 5:43 AM PDT 8:09 PM PDT
Astronomical Twilight 5:13 AM PDT 8:39 PM PDT
Moon 12:15 AM PDT (4/1) 10:41 AM PDT (4/1)
Length of Visible Light 13h 25m
Length of Day
12h 34m
Waning Gibbous, 66% of the Moon is Illuminated
Apr 1
Waning Gibbous
Apr 2
Last Quarter
Apr 10
New
Apr 18
First Quarter
Apr 25
Full

Hourly Weather History & Observations

Time (PDT) Temp. Dew Point Humidity Pressure Visibility Wind Dir Wind Speed Gust Speed Precip Events Conditions
12:53 AM 50.0 °F 41.0 °F 71% 30.04 in 10.0 mi WNW 9.2 mph - N/A   Clear
1:53 AM 48.9 °F 42.1 °F 77% 30.05 in 10.0 mi WSW 19.6 mph 24.2 mph N/A   Clear
2:53 AM 48.9 °F 39.9 °F 71% 30.04 in 10.0 mi SSW 11.5 mph 20.7 mph N/A   Clear
3:53 AM 48.0 °F 39.0 °F 71% 30.05 in 10.0 mi SSW 11.5 mph - N/A   Clear
4:53 AM 46.9 °F 39.9 °F 77% 30.05 in 10.0 mi SSW 9.2 mph - N/A   Clear
5:53 AM 46.9 °F 39.9 °F 77% 30.06 in 10.0 mi WSW 9.2 mph - N/A   Clear
6:53 AM 48.0 °F 39.9 °F 74% 30.07 in 10.0 mi WSW 16.1 mph - N/A   Clear
7:53 AM 50.0 °F 39.9 °F 68% 30.10 in 10.0 mi WSW 10.4 mph - N/A   Clear
8:53 AM 53.6 °F 39.2 °F 58% 30.12 in 10.0 mi WSW 13.8 mph - N/A   Clear
9:53 AM 55.9 °F 37.9 °F 51% 30.10 in 10.0 mi West 10.4 mph - N/A   Clear
10:53 AM 57.9 °F 39.0 °F 49% 30.11 in 10.0 mi WNW 15.0 mph 21.9 mph N/A   Clear
11:53 AM 60.1 °F 39.0 °F 46% 30.09 in 10.0 mi WSW 15.0 mph 26.5 mph N/A   Mostly Cloudy
12:53 PM 63.0 °F 37.9 °F 40% 30.07 in 10.0 mi West 15.0 mph 26.5 mph N/A   Clear
1:53 PM 64.9 °F 36.0 °F 34% 30.05 in 10.0 mi WNW 12.7 mph 21.9 mph N/A   Clear
2:53 PM 66.9 °F 39.0 °F 36% 30.03 in 10.0 mi West 23.0 mph 27.6 mph N/A   Partly Cloudy
3:53 PM 64.0 °F 41.0 °F 43% 30.01 in 10.0 mi WSW 24.2 mph 32.2 mph N/A   Clear
4:53 PM 63.0 °F 42.1 °F 46% 30.00 in 10.0 mi WSW 20.7 mph - N/A   Clear
5:53 PM 62.1 °F 43.0 °F 50% 30.02 in 10.0 mi WSW 21.9 mph 28.8 mph N/A   Clear
6:53 PM 57.9 °F 43.0 °F 58% 30.03 in 10.0 mi WSW 16.1 mph - N/A   Clear
7:53 PM 55.9 °F 43.0 °F 62% 30.04 in 10.0 mi SW 10.4 mph 18.4 mph N/A   Clear
8:53 PM 54.0 °F 43.0 °F 66% 30.04 in 10.0 mi West 16.1 mph 25.3 mph N/A   Clear
9:53 PM 54.0 °F 42.1 °F 64% 30.04 in 10.0 mi SSW 9.2 mph - N/A   Clear
10:53 PM 54.0 °F 41.0 °F 62% 30.04 in 10.0 mi SSW 9.2 mph - N/A   Clear
11:53 PM 53.1 °F 39.9 °F 61% 30.03 in 10.0 mi SW 9.2 mph - N/A   Clear